Tracking 27086 objects as of 22-Mar-2023
HD Live streaming from Space Station
objects crossing your sky now

JILIN-01 GAOFEN 3D 6

Track JILIN-01 GAOFEN 3D 6 now!
10-day predictions


NORAD ID: 52391
Int'l Code: 2022-046D
Perigee: 522.9 km
Apogee: 537.1 km
Inclination: 97.5 °
Period: 95.1 minutes
Semi major axis: 6901 km
RCS: Unknown
Launch date: April 30, 2022
Source: People's Republic of China (PRC)
Launch site: Yellow Sea Launch Area, China (YSLA)
Your satellite tracking list
Your tracking list is empty




NASA's NSSDC Master Catalog

Two Line Element Set (TLE):
1 52391U 22046D   23081.23040362  .00012435  00000-0  67986-3 0  9992
2 52391  97.5305 170.2343 0010273 248.7952 189.7367 15.14379053 49261
Source of the keplerian elements: AFSPC